Pullman, WA

8:34 PM PDT on September 18, 2019 (GMT -0700)
Pullman-Moscow Regional

Weather History for KPUW - August, 2019

Change the Weather History Date:

Saturday, August 24, 2019

  Actual Average Record
Temperature  
Mean Temperature 68 °F 64 °F  
Max Temperature 80 °F 81 °F 100 °F (1966)
Min Temperature 55 °F 48 °F 32 °F (1908)
Degree Days  
Heating Degree Days 0 3  
Month to date heating degree days 5 42  
Since 1 June heating degree days 178 312  
Since 1 July heating degree days 46 106  
Cooling Degree Days 3 2  
Month to date cooling degree days 117 77  
Year to date cooling degree days 218 177  
Since 1 June cooling degree days 215 172  
Growing Degree Days 18 (Base 50)    
Moisture  
Dew Point 42 °F    
Average Humidity 47    
Maximum Humidity 72    
Minimum Humidity 21    
Precipitation  
Precipitation 0.00 in 0.02 in 1.65 in (1989)
Month to date precipitation 0.61 0.49  
Year to date precipitation 11.89 10.77  
Sea Level Pressure  
Sea Level Pressure 29.87 in    
Wind  
Wind Speed 7 mph (WSW)    
Max Wind Speed 23 mph    
Max Gust Speed 31 mph    
Visibility 10 miles    
Events      
T = Trace of Precipitation, MM = Missing Value Source: NWS Daily Summary

Daily Weather History Graph

Daily Weather History Graph

Search for Another Location

Airport or City:

Astronomy

Aug. 24, 2019 Rise Set
Actual Time 5:57 AM PDT 7:42 PM PDT
Civil Twilight 5:25 AM PDT 8:15 PM PDT
Nautical Twilight 4:46 AM PDT 8:54 PM PDT
Astronomical Twilight 4:03 AM PDT 9:36 PM PDT
Moon No Moon Rise 3:14 PM PDT (8/24)
Length of Visible Light 14h 49m
Length of Day
13h 45m
Last Quarter, 38% of the Moon is Illuminated
Aug 24
Last Quarter
Aug 30
New
Sep 5
First Quarter
Sep 13
Full
Sep 21
Last Quarter

Hourly Weather History & Observations

Time (PDT) Temp. Dew Point Humidity Pressure Visibility Wind Dir Wind Speed Gust Speed Precip Events Conditions
12:53 AM 63.0 °F 48.9 °F 60% 29.83 in 10.0 mi Calm Calm - N/A   Clear
2:53 AM 57.0 °F 46.9 °F 69% 29.85 in 10.0 mi Calm Calm - N/A   Clear
3:53 AM 57.9 °F 48.0 °F 70% 29.84 in 10.0 mi Calm Calm - N/A   Clear
4:53 AM 59.0 °F 48.9 °F 69% 29.83 in 10.0 mi Calm Calm - N/A   Clear
5:53 AM 60.1 °F 48.9 °F 67% 29.84 in 10.0 mi Calm Calm - N/A   Clear
6:53 AM 62.1 °F 46.9 °F 58% 29.86 in 10.0 mi Calm Calm - N/A   Clear
7:53 AM 64.9 °F 46.0 °F 50% 29.87 in 10.0 mi SSW 3.5 mph - N/A   Clear
8:53 AM 68.0 °F 43.0 °F 40% 29.88 in 10.0 mi SW 11.5 mph - N/A   Clear
9:53 AM 73.9 °F 41.0 °F 30% 29.87 in 10.0 mi WSW 19.6 mph 24.2 mph N/A   Clear
10:53 AM 77.0 °F 41.0 °F 28% 29.86 in 10.0 mi WSW 16.1 mph - N/A   Clear
11:53 AM 78.1 °F 39.0 °F 25% 29.87 in 10.0 mi WSW 17.3 mph - N/A   Clear
12:53 PM 79.0 °F 39.0 °F 24% 29.87 in 10.0 mi West 17.3 mph 24.2 mph N/A   Clear
1:53 PM 78.1 °F 35.1 °F 21% 29.87 in 10.0 mi WSW 11.5 mph 20.7 mph N/A   Clear
2:53 PM 79.0 °F 42.1 °F 27% 29.87 in 10.0 mi West 18.4 mph 24.2 mph N/A   Clear
3:53 PM 78.1 °F 37.9 °F 24% 29.88 in 10.0 mi WSW 15.0 mph 20.7 mph N/A   Clear
4:53 PM 78.1 °F 39.9 °F 25% 29.88 in 10.0 mi West 13.8 mph 23.0 mph N/A   Clear
5:53 PM 75.9 °F 39.0 °F 26% 29.88 in 10.0 mi WNW 9.2 mph - N/A   Clear
6:53 PM 73.9 °F 39.0 °F 28% 29.88 in 10.0 mi West 5.8 mph - N/A   Clear
7:53 PM 71.1 °F 37.9 °F 30% 29.88 in 10.0 mi West 4.6 mph - N/A   Clear
8:53 PM 64.0 °F 39.0 °F 40% 29.90 in 10.0 mi Calm Calm - N/A   Clear
9:53 PM 60.1 °F 39.9 °F 47% 29.90 in 10.0 mi Calm Calm - N/A   Clear
10:53 PM 59.0 °F 39.9 °F 49% 29.90 in 10.0 mi Calm Calm - N/A   Clear
11:53 PM 55.0 °F 39.0 °F 55% 29.90 in 10.0 mi Calm Calm - N/A   Clear